EW4077 Weather Reports


Display with metric or nautical units.
time (UTC)temp
F
wind
direction
speed
MPH
gust
MPH
rain 1hr
in
rain 24hr
in
rain mn
in
humidity
%
barometer
mb
20260904124552 65 321 1.0 1.0 0.00 0.00 0.00 88 1012.1
20260904123107 65 312 1.0 2.0 0.00 0.00 0.00 88 1012.0
20260904121546 65 306 1.0 2.0 0.00 0.00 0.00 87 1011.9
20260904120044 65 322 1.0 2.0 0.00 0.00 0.00 87 1011.9
20260904114544 65 323 0.0 0.0 0.00 0.00 0.00 87 1011.9
20260904113052 65 311 0.0 2.0 0.00 0.00 0.00 87 1011.9
20260904111542 65 313 0.0 0.0 0.00 0.00 0.00 87 1011.9
20260904110051 65 292 0.0 0.0 0.00 0.00 0.00 87 1011.9
20260904104540 65 292 0.0 0.0 0.00 0.00 0.00 87 1011.9
20260904103039 65 290 0.0 0.0 0.00 0.00 0.00 87 1011.9
20260904101539 66 290 0.0 0.0 0.00 0.00 0.00 87 1011.7
20260904100041 66 278 0.0 0.0 0.00 0.00 0.00 87 1011.8
20260904094532 67 252 0.0 0.0 0.00 0.00 0.00 86 1011.9
20260904093044 67 252 0.0 0.0 0.00 0.00 0.00 86 1011.9
20260904091532 67 252 0.0 0.0 0.00 0.00 0.00 86 1011.9
20260904090031 67 252 0.0 0.0 0.00 0.00 0.00 85 1011.9
20260904084529 67 252 0.0 0.0 0.00 0.00 0.00 84 1012.0
20260904083029 67 252 0.0 0.0 0.00 0.00 0.00 84 1012.0
20260904081528 67 235 0.0 0.0 0.00 0.00 0.00 84 1012.1
20260904080027 67 248 0.0 0.0 0.00 0.00 0.00 85 1012.1
20260904074526 67 224 0.0 0.0 0.00 0.00 0.00 85 1012.0
20260904073025 67 265 0.0 0.0 0.00 0.00 0.00 85 1012.1
20260904071522 67 265 0.0 0.0 0.00 0.00 0.00 85 1012.1
20260904070036 68 240 0.0 1.0 0.00 0.00 0.00 85 1012.0
20260904064520 68 201 0.0 2.0 0.00 0.00 0.00 84 1012.0
20260904063020 68 248 0.0 3.0 0.00 0.00 0.00 84 1012.0
20260904061519 68 245 1.0 3.0 0.00 0.00 0.00 84 1011.9
20260904060021 68 236 3.0 5.0 0.00 0.00 0.00 84 1011.8
20260904054529 68 258 2.0 5.0 0.00 0.00 0.00 84 1011.8
20260904053018 68 247 2.0 6.0 0.00 0.00 0.00 83 1011.9
20260904051517 69 268 3.0 8.0 0.00 0.00 0.00 83 1012.0
20260904050019 69 238 4.0 8.0 0.00 0.00 0.00 82 1012.0
20260904044524 69 261 4.0 7.0 0.00 0.00 0.00 82 1011.9
20260904043016 69 263 4.0 7.0 0.00 0.00 0.00 82 1011.8
20260904041513 69 247 5.0 9.0 0.00 0.00 0.00 82 1011.8
20260904040015 69 244 5.0 9.0 0.00 0.00 0.00 82 1011.6
20260904034524 69 238 6.0 9.0 0.00 0.00 0.00 82 1011.4
20260904033011 69 267 6.0 12.0 0.00 0.00 0.00 82 1011.3
20260904031514 69 254 6.0 10.0 0.00 0.00 0.00 84 1011.1
20260904030009 69 257 6.0 12.0 0.00 0.00 0.00 84 1011.1
20260904024508 69 244 7.0 11.0 0.00 0.00 0.00 83 1010.9
20260904023007 69 250 9.0 13.0 0.00 0.00 0.00 82 1011.0
20260904021505 69 232 8.0 16.0 0.00 0.00 0.00 81 1011.0
20260904020005 69 258 8.0 16.0 0.00 0.00 0.00 80 1010.9
20260904014503 70 258 8.0 17.0 0.00 0.00 0.00 80 1010.9
20260904013002 70 234 9.0 15.0 0.00 0.00 0.00 78 1011.1
20260904011507 70 229 7.0 15.0 0.00 0.00 0.00 79 1011.0
20260904010002 70 219 9.0 18.0 0.00 0.00 0.00 80 1011.0
20260904004600 70 234 9.0 17.0 0.00 0.00 0.00 78 1011.0
20260904003059 70 236 14.0 20.0 0.00 0.00 0.00 78 1011.0
20260904001557 71 232 11.0 18.0 0.00 0.00 0.00 76 1011.0
20260904000059 71 246 8.0 17.0 0.00 0.00 0.00 77 1011.3
20260903234551 71 247 10.0 19.0 0.00 0.00 0.00 78 1011.3
20260903233047 72 261 8.0 16.0 0.00 0.00 0.00 78 1011.4
20260903231547 71 223 9.0 16.0 0.00 0.00 0.00 78 1011.6
20260903230045 72 255 9.0 14.0 0.00 0.00 0.00 77 1011.8
20260903224540 72 225 8.0 15.0 0.00 0.00 0.00 77 1012.0
20260903223036 72 189 5.0 10.0 0.00 0.00 0.00 77 1012.2
20260903221531 72 224 7.0 14.0 0.00 0.00 0.00 77 1012.4
20260903220029 72 178 7.0 12.0 0.00 0.00 0.00 77 1012.6
20260903214533 72 245 6.0 11.0 0.00 0.00 0.00 78 1012.6
20260903213031 73 242 7.0 12.0 0.00 0.00 0.00 77 1012.7
20260903211523 74 221 6.0 9.0 0.00 0.00 0.00 76 1012.7
20260903210020 74 188 5.0 8.0 0.00 0.00 0.00 73 1012.8
20260903204518 74 174 5.0 8.0 0.00 0.00 0.00 72 1012.9
20260903203026 75 164 3.0 7.0 0.00 0.00 0.00 73 1013.1
20260903201515 74 163 5.0 7.0 0.00 0.00 0.00 74 1013.2
20260903200011 74 155 2.0 7.0 0.00 0.00 0.00 73 1013.3
20260903194509 74 161 4.0 7.0 0.00 0.00 0.00 74 1013.4
20260903193017 74 178 4.0 6.0 0.00 0.00 0.00 74 1013.6
20260903191508 74 163 3.0 6.0 0.00 0.00 0.00 73 1013.8
20260903190007 74 136 3.0 6.0 0.00 0.00 0.00 73 1014.0
20260903184505 74 173 2.0 5.0 0.00 0.00 0.00 73 1014.3
20260903183006 74 144 3.0 5.0 0.00 0.00 0.00 74 1014.4
20260903181507 74 209 2.0 5.0 0.00 0.00 0.00 74 1014.4
20260903180006 73 144 2.0 5.0 0.00 0.00 0.00 74 1014.4
20260903174602 73 128 2.0 5.0 0.00 0.00 0.00 75 1014.4
20260903173101 73 166 3.0 6.0 0.00 0.00 0.00 75 1014.4
20260903171613 73 190 3.0 6.0 0.00 0.00 0.00 75 1014.5
20260903164624 73 186 3.0 5.0 0.00 0.00 0.00 74 1014.2
20260903163101 72 205 3.0 5.0 0.00 0.00 0.00 74 1014.2
20260903161553 72 192 2.0 4.0 0.00 0.00 0.00 74 1014.2
20260903160054 72 178 2.0 4.0 0.00 0.00 0.00 74 1014.2
20260903154552 72 229 1.0 4.0 0.00 0.00 0.00 74 1014.2
20260903153048 71 250 0.0 1.0 0.00 0.00 0.00 77 1014.1
20260903151545 70 251 0.0 1.0 0.00 0.00 0.00 78 1014.2
20260903150046 70 202 0.0 1.0 0.00 0.00 0.00 78 1014.1
20260903144547 70 308 0.0 1.0 0.00 0.00 0.00 78 1014.1
20260903143046 69 301 0.0 2.0 0.00 0.00 0.00 81 1013.9
20260903141540 68 298 1.0 2.0 0.00 0.00 0.00 83 1013.7
20260903140044 67 307 1.0 4.0 0.00 0.00 0.00 84 1013.5
20260903134538 67 275 1.0 3.0 0.00 0.00 0.00 86 1013.5
20260903133044 67 267 1.0 3.0 0.00 0.00 0.00 86 1013.4
20260903131537 67 259 2.0 5.0 0.00 0.00 0.00 85 1013.4
20260903130036 67 250 3.0 5.0 0.00 0.00 0.00 85 1013.4